CAPE
0 0 0 0 0 0 0 0 8 2 1 0 0 0 28 0 12 68 405 1492 1843 1783 2067 2557 3159 3470 3196 2782 2862 2600 2361 2155 2221 2160 2043 2061 2120 2012 2015 2228 2088 2297 2324 2151
0 0 0 0 0 0 0 0 0 0 0 0 54 848 611 315 225 118 196 857 1882 2327 2214 2586 3322 3560 3231 2939 3004 2714 2461 2236 2248 2232 2255 2211 2331 2440 2664 2504 2355 2506 2497 2325
0 0 0 0 0 0 0 0 0 0 0 70 509 902 1153 1532 1409 1025 424 414 1197 2367 2622 2778 3278 3514 3238 3018 2896 2663 2461 2353 2484 2550 2616 2581 2672 2774 2597 2592 2807 2771 2489 2153
0 30 5 0 0 0 0 0 0 0 35 630 943 898 2036 2380 2375 2246 2015 1480 456 1663 2527 2913 3204 3359 3231 2984 2925 2749 2463 2488 2667 2837 2848 2883 2808 2774 2700 3069 2563 2744 2326 2178
11 32 0 0 27 0 0 0 3 0 415 828 1164 781 1486 1873 2247 2326 2138 1081 631 1372 2352 3001 3236 3412 3333 3050 3004 2833 2612 2417 2684 2919 2915 3072 2921 2909 2695 2608 2563 2451 2130 2081
195 27 28 0 2 64 18 1 642 706 817 1176 945 268 2064 1808 1423 1593 2076 1999 767 706 1603 2507 3187 3334 3349 3166 3081 2954 2676 2573 2682 2875 3053 3113 3342 3641 2971 2755 2525 2295 1928 1708
310 79 28 282 767 740 405 233 1164 1223 1569 1705 1233 1901 2006 1567 1280 1279 950 1751 1842 1108 1242 1688 2475 2998 3348 3297 3073 3055 3343 2962 2873 3036 3491 3672 3411 2734 2981 2835 2424 2355 1802 1416
159 144 135 468 705 750 1050 1399 1415 1670 1628 1691 1662 1442 1270 1324 1118 1241 1236 1095 1711 2022 1974 1765 1979 2583 3081 3261 3195 3214 3171 3144 3179 3224 3091 3057 3762 3346 3084 2907 2518 2205 1771 1312
891 847 1082 879 1296 1471 1223 1202 1135 1198 950 901 839 910 878 875 1107 1228 1380 1311 1319 1748 2141 2079 2126 2246 2688 2867 2814 2932 2974 3075 2921 2978 2963 2552 1975 1796 2763 2808 2349 2109 1574 1270
1081 1040 1092 1150 1203 1278 1171 1101 878 841 860 647 640 491 412 384 395 530 746 1316 1273 1043 1372 763 464 761 2017 2362 2291 2316 2084 2107 2415 2380 2010 1457 280 0 0 187 2057 1478 1134 872
1021 963 768 762 922 888 830 741 727 645 579 506 377 291 257 340 549 462 327 395 1004 1000 1453 1324 1209 1232 783 985 1502 1724 1186 806 1251 1617 1170 1151 89 7 45 767 1130 876 942 674
940 1042 1044 1238 944 824 756 569 472 419 447 269 316 726 821 871 726 609 594 620 468 420 500 648 1052 1133 873 788 308 125 249 506 262 397 411 560 385 2 1 1 1 11 67 430
826 797 1009 1172 1017 651 643 572 600 544 494 747 716 835 857 791 743 315 825 660 512 487 361 406 544 599 844 1027 723 431 616 1070 441 37 286 324 193 77 132 6 0 0 2 0
682 790 1001 868 765 729 654 549 478 702 705 653 762 562 464 610 422 473 315 414 525 279 445 564 532 518 174 457 745 733 539 127 416 269 212 321 350 240 192 298 152 97 0 0
460 739 893 1013 845 787 751 700 803 766 679 659 485 206 201 342 308 22 73 164 311 77 74 503 580 530 655 923 771 728 934 877 665 572 351 282 424 462 161 30 8 90 14 0
384 581 789 913 1023 1058 997 893 823 802 734 574 207 8 1 56 87 145 21 16 39 13 56 215 239 157 335 538 511 540 625 144 155 226 77 64 83 14 5 8 11 14 8 5
444 452 940 831 966 1031 1031 1244 1100 834 845 288 0 0 0 0 10 22 15 37 3 2 19 239 281 174 511 339 377 492 517 300 27 130 67 7 5 9 8 12 17 9 4 2
801 605 469 753 1079 1132 1169 1059 1012 1033 461 0 0 0 1 2 12 7 2 10 5 8 68 52 154 112 192 375 619 654 229 161 155 196 101 31 10 4 8 8 7 4 4 2
870 865 775 786 1149 1168 1329 1393 1109 408 5 1 8 7 6 8 4 6 6 8 11 50 24 25 0 53 170 46 221 270 182 256 277 382 321 26 230 239 62 66 84 52 13 2
1076 948 901 910 1208 1190 1475 1195 537 108 23 48 37 9 8 7 4 9 14 23 29 18 4 1 247 232 236 4 0 42 63 77 88 77 165 164 341 265 268 42 90 268 180 19
1138 889 991 1225 1125 1387 1271 826 375 173 93 86 21 32 4 2 8 15 17 27 26 7 1 0 39 137 37 16 19 21 18 14 6 6 19 161 65 9 92 89 78 77 234 544
1108 1083 1127 1235 1308 1295 896 479 251 180 76 30 22 11 29 45 27 6 1 0 0 0 7 7 0 0 0 0 6 3 1 0 0 0 0 2 7 57 68 120 108 102 429 620
1213 1181 1183 1349 1285 839 535 296 186 159 101 25 3 61 40 0 0 0 0 0 0 0 0 0 0 0 0 0 0 0 0 0 0 0 0 0 0 0 0 0 0 0 1 26
1067 1083 1207 1229 974 672 429 339 171 180 32 0 0 0 0 0 0 0 0 0 0 0 0 0 0 0 0 0 0 0 0 0 0 0 0 0 0 0 0 0 0 4 6 0
1005 1222 1082 923 711 506 469 323 112 58 0 0 0 0 5 19 14 9 12 9 0 1 33 0 0 0 39 50 58 70 67 71 61 53 42 35 23 20 3 0 0 2 2 17
925 425 350 280 53 95 171 311 40 14 1 0 0 21 31 38 40 46 65 23 45 11 57 62 62 44 58 43 47 46 36 32 32 87 84 135 173 177 70 38 39 51 54 58
392 136 38 9 167 533 141 55 47 3 0 2 17 30 39 52 48 32 6 56 54 35 24 25 23 6 20 29 29 26 20 20 6 22 27 59 129 238 258 255 353 411 394 340
CIN
-0 -0 -0 -0 -0 -0 -0 -0 -0 -0 -0 -0 -0 -0 -69 -0 -124 -92 -54 -53 -76 -113 -122 -153 -119 -97 -104 -102 -65 -66 -66 -57 -42 -28 -17 -6 -3 -4 -0 -0 -0 -0 -0 -0
-0 -0 -0 -0 -0 -0 -0 -0 -0 -0 -0 -0 -70 -35 -30 -46 -102 -96 -84 -60 -70 -114 -151 -152 -121 -99 -105 -102 -83 -79 -70 -54 -36 -32 -16 -6 -0 -0 -0 -0 -0 -0 -0 -0
-0 -0 -0 -0 -0 -0 -0 -0 -0 -0 -0 -5 -19 -37 -66 -96 -104 -113 -152 -123 -87 -93 -123 -134 -118 -92 -91 -98 -93 -88 -90 -69 -29 -13 -0 -0 -0 -0 -0 -0 -0 -0 -0 -0
-0 -0 -0 -0 -0 -0 -0 -0 -0 -0 -7 -21 -43 -87 -97 -126 -115 -121 -156 -200 -210 -106 -107 -116 -110 -80 -85 -102 -90 -90 -100 -50 -7 -4 -0 -0 -0 -0 -0 -0 -0 -0 -0 -0
-4 -2 -0 -0 -54 -0 -0 -0 -8 -0 -18 -18 -49 -66 -84 -165 -179 -186 -203 -259 -271 -156 -135 -112 -106 -85 -73 -84 -72 -82 -114 -89 -17 -0 -0 -0 -0 -0 -0 -0 -0 -0 -0 -0
-0 -0 -0 -0 -11 -52 -1 -0 -14 -24 -22 -24 -44 -10 -26 -175 -241 -248 -230 -258 -319 -285 -193 -131 -115 -86 -59 -60 -63 -74 -62 -76 -33 -0 -0 -0 -0 -0 -0 -0 -0 -0 -0 -0
-1 -1 -2 -15 -26 -60 -11 -2 -25 -32 -45 -45 -13 -62 -129 -178 -216 -251 -319 -229 -220 -278 -224 -187 -163 -91 -56 -30 -41 -39 -21 -25 -13 -4 -0 -0 -0 -0 -0 -0 -0 -0 -0 -13
-3 -2 -1 -72 -107 -19 -55 -79 -71 -78 -92 -98 -100 -122 -153 -171 -205 -204 -190 -216 -160 -132 -137 -190 -175 -107 -48 -19 -10 -8 -8 -1 -0 -0 -0 -0 -0 -0 -0 -0 -0 -1 -21 -25
-7 -5 -90 -105 -90 -127 -101 -126 -136 -119 -163 -158 -137 -126 -164 -184 -175 -169 -157 -172 -194 -140 -121 -133 -130 -104 -45 -30 -32 -6 -0 -1 -4 -3 -0 -10 -36 -34 -0 -0 -0 -0 -14 -22
-15 -43 -78 -109 -131 -119 -120 -126 -157 -166 -150 -189 -160 -189 -193 -205 -205 -222 -205 -148 -174 -219 -169 -285 -369 -290 -76 -23 -18 -20 -39 -14 -0 -6 -24 -25 -233 -0 -0 -48 -0 -0 -1 -20
-6 -21 -58 -85 -105 -129 -156 -158 -150 -165 -175 -195 -218 -208 -228 -212 -217 -241 -258 -245 -144 -142 -73 -83 -100 -98 -174 -130 -59 -31 -67 -131 -17 -16 -83 -58 -179 -121 -146 -19 -4 -0 -0 -8
-0 -18 -29 -39 -90 -127 -122 -159 -178 -173 -188 -241 -210 -153 -153 -130 -190 -230 -213 -172 -176 -173 -126 -87 -13 -29 -62 -77 -192 -237 -168 -112 -170 -101 -95 -104 -93 -16 -0 -0 -0 -59 -161 -13
-20 -79 -49 -49 -69 -93 -85 -118 -118 -103 -117 -91 -119 -89 -95 -103 -107 -238 -84 -96 -112 -105 -124 -95 -33 -31 -9 -7 -19 -21 -3 -0 -48 -239 -70 -41 -185 -165 -115 -79 -0 -0 -0 -0
-70 -93 -54 -62 -35 -74 -76 -97 -177 -81 -66 -60 -36 -60 -69 -56 -117 -90 -132 -96 -68 -104 -83 -63 -44 -22 -112 -70 -33 -43 -29 -108 -38 -64 -77 -62 -80 -56 -42 -20 -90 -101 -0 -0
-42 -33 -25 -39 -57 -60 -63 -65 -66 -44 -35 -30 -26 -68 -61 -44 -81 -253 -206 -143 -99 -181 -158 -19 -17 -18 -9 -8 -12 -10 -6 -2 -13 -19 -46 -30 -4 -0 -49 -109 -0 -50 -40 -0
-33 -36 -34 -36 -31 -39 -44 -55 -44 -24 -16 -13 -45 -117 -49 -108 -94 -87 -229 -69 -208 -46 -146 -57 -47 -69 -41 -9 -1 -0 -0 -53 -82 -26 -62 -114 -78 -21 -1 -0 -0 -0 -0 -0
-54 -22 -32 -73 -28 -26 -27 -28 -30 -22 -2 -36 -0 -0 -4 -5 -171 -234 -132 -191 -0 -0 -145 -43 -7 -20 -0 -1 -1 -0 -0 -7 -94 -33 -81 -99 -0 -0 -1 -0 -0 -0 -0 -0
-65 -36 -20 -10 -8 -28 -32 -41 -32 -19 -60 -0 -47 -0 -126 -150 -120 -92 -0 -0 -0 -27 -118 -74 -23 -23 -7 -3 -0 -0 -2 -0 -2 -3 -17 -68 -0 -0 -0 -0 -0 -0 -0 -0
-71 -72 -44 -18 -16 -25 -26 -16 -17 -84 -178 -213 -149 -129 -121 -128 -116 -0 -0 -0 -16 -58 -2 -36 -0 -35 -6 -28 -29 -1 -7 -0 -0 -0 -0 -55 -19 -2 -21 -30 -30 -37 -0 -0
-27 -68 -56 -30 -28 -35 -25 -23 -70 -119 -137 -118 -123 -114 -109 -99 -0 -0 -0 -0 -2 -0 -0 -0 -4 -2 -4 -21 -0 -75 -51 -66 -63 -55 -11 -5 -0 -12 -2 -34 -14 -0 -0 -2
-24 -67 -39 -36 -42 -9 -18 -54 -99 -106 -109 -91 -117 -90 -33 -0 -2 -0 -2 -0 -0 -0 -0 -0 -7 -1 -0 -21 -11 -0 -0 -0 -10 -23 -11 -1 -19 -3 -9 -16 -24 -23 -0 -0
-18 -27 -19 -17 -5 -4 -19 -69 -100 -100 -101 -96 -95 -121 -74 -53 -27 -0 -0 -0 -0 -0 -0 -0 -0 -0 -0 -0 -0 -0 -0 -0 -0 -0 -0 -10 -0 -9 -4 -1 -12 -16 -0 -0
-0 -7 -1 -0 -0 -23 -42 -65 -84 -77 -79 -91 -125 -49 -10 -0 -0 -0 -0 -0 -0 -0 -0 -0 -0 -0 -0 -0 -0 -0 -0 -0 -0 -0 -0 -0 -0 -0 -0 -0 -0 -0 -39 -27
-0 -1 -0 -0 -0 -6 -19 -24 -28 -30 -62 -0 -0 -0 -0 -0 -0 -0 -0 -0 -0 -0 -0 -0 -0 -0 -0 -0 -0 -0 -0 -0 -0 -0 -0 -0 -0 -0 -0 -0 -0 -0 -0 -0
-0 -0 -0 -0 -0 -1 -1 -0 -4 -28 -0 -0 -0 -0 -0 -0 -0 -0 -0 -1 -0 -5 -1 -0 -0 -0 -38 -0 -1 -0 -0 -0 -1 -7 -0 -0 -0 -1 -0 -0 -0 -0 -0 -0
-0 -10 -0 -13 -65 -68 -63 -11 -4 -30 -0 -0 -0 -0 -0 -0 -0 -2 -0 -0 -0 -1 -0 -3 -0 -40 -0 -0 -0 -1 -0 -0 -1 -0 -10 -0 -0 -0 -2 -11 -5 -0 -0 -0
-0 -24 -34 -32 -8 -1 -2 -2 -3 -20 -0 -0 -0 -0 -0 -0 -1 -7 -2 -0 -0 -0 -0 -0 -0 -0 -0 -0 -0 -0 -0 -0 -0 -6 -1 -8 -6 -0 -0 -0 -0 -0 -0 -0
Wind_Speed
18 22 7 12 19 20 22 21 19 14 15 16 11 4 8 8 5 6 5 7 8 9 11 12 13 13 12 12 12 12 12 12 13 12 11 10 11 11 11 11 10 9 9 8
19 17 19 16 16 12 18 20 19 16 15 11 3 5 6 4 5 7 4 7 8 11 13 14 15 14 13 13 13 14 13 12 12 12 11 11 11 11 10 10 11 9 10 9
16 19 19 21 21 20 14 13 16 16 12 6 4 1 5 6 6 6 6 6 8 11 13 14 15 15 14 14 14 14 13 13 13 13 12 11 10 11 11 12 9 10 9 8
14 18 17 14 18 21 18 14 14 8 5 2 2 2 5 9 9 9 8 6 7 8 11 13 14 15 14 15 14 14 14 13 13 14 14 13 12 11 11 9 10 9 9 9
12 13 14 9 10 12 15 17 10 13 7 5 2 6 4 9 11 12 11 7 5 6 9 11 14 14 14 15 15 15 16 15 14 13 14 14 13 13 12 11 11 10 10 10
10 17 20 15 12 7 12 14 13 12 8 5 5 9 11 7 10 12 13 11 6 3 6 8 11 13 14 15 16 16 14 15 15 14 14 14 14 13 12 12 12 11 11 11
13 11 12 4 12 10 15 6 16 10 6 3 2 6 6 6 7 8 9 11 8 3 2 4 7 11 13 14 15 13 12 14 15 15 14 13 12 11 12 12 10 11 11 10
12 11 13 10 9 11 7 9 10 10 7 8 8 6 5 5 6 8 9 9 8 6 4 2 3 7 10 12 10 10 11 12 12 12 11 10 10 10 11 11 12 12 11 10
3 3 4 11 5 5 6 9 7 7 6 5 4 4 3 3 4 5 6 6 6 6 5 5 3 2 6 6 6 7 8 11 11 11 9 5 1 3 5 9 10 11 11 11
7 6 6 6 5 7 5 7 5 4 4 2 1 2 1 3 3 4 6 6 5 2 2 4 4 4 3 6 7 8 8 6 10 10 8 7 1 9 6 19 14 12 9 11
9 6 4 7 5 6 6 4 4 4 3 2 0 1 3 3 4 5 5 4 4 5 5 5 5 4 3 4 6 7 6 5 7 7 8 8 11 11 13 21 13 11 11 11
3 8 4 5 5 5 6 7 5 5 4 2 1 2 1 5 5 4 4 3 4 1 2 2 1 2 2 2 7 9 10 8 9 6 7 7 5 6 12 5 9 9 6 7
3 2 3 8 7 5 6 5 5 4 3 5 3 4 4 6 6 5 7 5 4 3 3 3 2 4 4 2 3 2 6 4 4 6 6 6 5 5 4 8 6 8 9 9
5 1 4 5 3 6 4 5 5 3 5 5 5 4 4 5 6 4 5 5 5 4 3 3 3 4 3 3 3 2 2 5 3 3 3 2 2 5 6 8 7 6 6 7
6 8 5 1 4 5 4 6 6 6 7 6 5 4 4 6 6 5 4 4 5 6 5 4 4 6 6 3 4 3 3 3 2 2 2 1 3 4 3 4 6 5 2 2
4 5 7 9 7 6 6 7 8 7 7 6 5 4 5 5 5 6 5 5 5 5 5 6 5 5 5 2 2 4 2 5 5 2 2 3 3 2 1 3 4 5 3 3
8 9 8 9 10 8 8 7 7 8 7 6 5 5 5 5 5 5 5 7 4 4 4 6 6 5 5 1 2 4 6 3 4 3 2 2 1 3 3 3 4 4 3 2
12 15 8 10 9 9 8 9 9 8 6 6 6 5 5 5 4 5 4 3 3 4 7 6 7 6 6 5 4 3 3 2 2 3 3 3 2 2 2 2 3 2 2 4
12 14 16 13 10 10 10 11 10 9 9 8 7 6 5 5 4 5 2 2 3 3 6 5 6 4 6 7 3 3 3 2 2 3 2 3 4 4 4 3 3 5 4 4
10 12 14 12 12 13 12 11 11 10 8 7 7 6 5 5 4 5 3 5 5 5 4 6 4 5 6 7 6 4 4 6 6 5 4 5 3 3 1 2 3 6 4 6
7 8 11 12 13 13 13 12 12 11 9 8 6 6 5 5 5 5 5 4 4 4 4 2 6 4 4 2 2 4 5 5 5 4 4 5 2 1 1 3 2 4 4 6
6 6 9 14 14 14 13 12 12 9 8 7 6 6 7 6 6 4 5 4 5 4 1 4 5 8 6 12 5 6 6 6 6 5 4 5 5 4 3 4 2 2 4 5
5 6 10 13 15 14 14 13 12 10 9 7 8 8 8 7 7 7 7 2 5 1 5 6 5 4 8 4 6 7 7 7 7 7 6 6 5 5 4 4 4 2 1 3
6 7 11 13 14 14 14 12 12 11 9 8 10 10 10 7 6 6 6 4 3 3 2 5 4 2 9 3 3 4 4 4 3 4 3 1 5 5 4 3 3 2 1 4
6 7 10 12 12 8 8 9 9 10 10 11 11 9 7 5 6 6 5 5 7 6 5 8 6 6 6 3 1 2 2 2 2 4 4 3 4 3 3 3 3 4 4 2
6 4 4 8 8 7 5 4 7 8 9 10 8 8 7 6 5 6 6 2 4 4 5 7 6 9 5 1 1 2 3 3 3 2 4 5 4 4 5 4 5 4 5 5
5 7 7 6 4 6 8 8 9 10 10 10 9 8 7 6 5 2 0 3 3 1 1 1 1 2 3 3 2 2 3 4 5 7 5 5 5 5 6 6 6 7 6 7
Wind_Direction
239 266 249 220 213 215 229 236 250 249 236 242 271 297 309 307 293 281 229 197 180 185 177 176 175 173 175 173 172 171 176 176 177 179 178 179 180 184 197 193 200 206 197 199
236 244 251 246 250 229 222 233 246 262 271 285 114 282 282 311 308 295 296 212 198 180 186 186 184 182 177 174 173 173 177 176 168 172 172 181 182 192 198 198 205 203 201 197
244 231 235 235 232 233 212 210 226 231 240 124 209 346 9 355 349 344 322 290 217 201 195 191 189 183 180 177 172 177 177 175 175 172 178 187 189 194 197 201 193 202 200 195
251 238 228 245 223 226 223 221 213 237 217 217 261 115 56 28 11 6 354 309 264 219 202 195 191 187 182 175 176 178 179 181 183 177 178 184 186 189 193 201 199 201 198 196
233 234 237 183 195 208 222 227 213 223 206 211 201 170 142 44 27 24 12 348 276 224 209 195 195 189 186 182 180 185 183 186 186 191 186 182 191 191 189 191 197 199 197 197
221 244 236 225 178 206 230 232 178 210 199 187 163 219 94 51 27 21 23 20 356 252 231 201 204 196 192 193 192 192 188 186 186 192 198 196 189 190 195 195 198 196 195 196
220 234 238 107 142 176 205 155 158 176 146 151 195 35 70 45 35 26 23 22 21 21 240 228 213 205 200 203 206 198 188 188 186 192 194 202 194 192 192 209 204 207 197 196
220 222 245 150 155 219 85 127 135 135 126 110 105 102 67 49 30 20 15 22 18 39 58 67 206 213 211 215 207 208 198 193 189 199 198 190 197 190 193 196 205 203 200 200
49 70 52 151 27 81 124 125 125 133 120 117 120 104 85 35 26 17 13 19 20 27 59 60 86 171 190 159 168 183 193 198 188 191 188 167 159 347 265 226 228 218 209 208
316 98 114 136 107 114 105 113 126 116 124 121 76 31 357 355 350 352 9 14 14 345 124 94 71 33 75 169 178 163 168 190 194 184 179 159 117 96 351 307 255 235 219 229
260 230 184 175 158 140 132 134 137 119 127 124 295 36 355 348 338 319 301 302 27 17 39 48 12 340 239 230 190 191 189 210 202 208 188 194 172 184 185 237 254 256 229 227
351 28 356 58 148 171 147 128 129 146 151 138 176 102 56 49 39 16 334 274 237 308 333 23 67 67 22 213 212 239 253 251 254 212 196 201 199 140 116 192 299 276 306 232
342 340 108 126 135 141 136 130 140 144 146 152 128 122 102 113 84 66 71 79 73 26 314 303 330 39 26 74 127 267 276 258 226 214 200 204 140 113 202 197 180 237 217 217
267 233 216 199 170 165 166 147 154 133 146 141 129 128 114 112 135 78 68 69 58 62 47 5 284 316 344 350 316 95 269 265 224 216 198 136 114 209 234 264 258 237 196 229
268 239 291 356 164 182 192 163 182 189 167 152 142 131 118 97 86 84 41 53 73 59 43 13 21 23 2 56 61 31 253 161 163 129 144 278 290 267 244 245 259 283 159 159
280 231 229 226 215 202 193 196 213 195 180 152 139 113 106 103 105 108 108 54 63 43 18 20 29 11 26 53 150 143 82 86 85 78 56 31 20 323 326 253 245 249 248 245
257 233 222 240 236 214 210 202 194 164 153 142 121 128 111 99 95 77 57 86 71 56 16 21 0 3 337 297 329 11 104 126 85 127 127 118 233 268 272 295 290 293 303 160
255 270 258 252 224 202 187 171 158 151 134 104 122 126 96 80 58 67 48 58 128 81 48 17 1 3 25 8 0 48 66 66 131 159 161 146 163 221 246 240 252 203 177 145
261 249 243 237 214 191 173 168 153 127 130 151 157 127 114 110 94 91 102 98 95 127 50 25 333 18 57 33 351 114 82 84 67 85 83 128 201 189 207 225 226 202 168 164
279 250 232 218 188 175 167 160 146 144 151 149 139 149 133 120 105 92 66 80 56 47 359 23 17 52 35 54 335 64 26 39 42 27 29 339 6 0 265 234 231 275 239 189
305 235 208 186 180 167 159 156 147 150 148 153 162 140 115 106 117 125 194 151 82 69 23 11 8 60 81 6 281 49 50 75 86 66 12 64 21 9 263 271 247 253 266 261
311 232 191 173 169 159 156 150 140 137 142 149 132 122 131 128 126 101 38 59 101 300 69 74 66 22 13 308 42 46 46 42 41 43 34 25 26 31 30 86 167 217 222 224
285 235 188 170 164 148 148 144 142 141 143 152 150 149 156 144 142 138 126 133 115 75 95 81 61 4 313 67 55 53 61 52 44 37 33 27 24 19 36 55 85 41 22 218
256 212 187 166 150 152 150 153 150 150 145 149 150 146 148 148 139 113 114 102 97 233 62 110 139 255 297 85 67 57 39 50 45 33 47 292 39 20 5 354 327 16 108 204
250 189 176 155 149 127 126 138 141 142 147 143 148 170 164 148 144 144 160 134 142 230 200 158 197 232 256 232 241 271 289 285 347 323 319 331 0 11 351 27 38 17 354 327
202 142 135 128 111 93 82 153 167 162 158 156 170 178 179 162 142 185 180 185 178 179 230 152 191 201 235 207 304 318 327 342 314 282 298 298 302 297 308 330 320 311 304 299
143 121 119 105 122 184 186 184 160 161 174 167 172 178 176 185 155 236 135 208 259 277 359 328 149 108 347 1 328 342 338 343 41 349 339 333 327 318 316 329 313 298 291 286